• In Deutschland
  • Länderverzeichnis
  • Für 7 Tage
  • Wassertemperatur
  • Satellitenkarten
  • Wetterkarte
  • Widgets
  • user-avatar
    Anmelden

    Stündliche Wetter Dessau

    Heute, 19 Juni, Dienstag

    Zeit Temperatur Niederschläge Wind Luftdruck Luftfeuchtigkeit
    00:00 +17°C° 0 mm 2 m/S 759 mmHg 90%
    01:00 +17°C° 0 mm 2 m/S 759 mmHg 90%
    02:00 +16°C° 0 mm 2 m/S 759 mmHg 90%
    03:00 +16°C° 0 mm 3 m/S 759 mmHg 90%
    04:00 +16°C° 0 mm 3 m/S 759 mmHg 90%
    05:00 +17°C° 0 mm 3 m/S 759 mmHg 86%
    06:00 +18°C° 0 mm 3 m/S 759 mmHg 82%
    07:00 +20°C° 0 mm 3 m/S 760 mmHg 76%
    08:00 +21°C° 0 mm 3 m/S 760 mmHg 72%
    09:00 +22°C° 0 mm 3 m/S 760 mmHg 68%
    10:00 +23°C° 0 mm 4 m/S 760 mmHg 64%
    11:00 +23°C° 0,1 mm 4 m/S 760 mmHg 65%
    12:00 +23°C° 0,1 mm 4 m/S 760 mmHg 67%
    13:00 +25°C° 0 mm 3 m/S 760 mmHg 67%
    14:00 +25°C° 0,1 mm 3 m/S 760 mmHg 68%
    15:00 +25°C° 0,1 mm 3 m/S 760 mmHg 68%
    16:00 +25°C° 0,1 mm 3 m/S 760 mmHg 69%
    17:00 +24°C° 0,1 mm 3 m/S 760 mmHg 72%
    18:00 +24°C° 0,1 mm 2 m/S 760 mmHg 74%
    19:00 +23°C° 0,1 mm 2 m/S 760 mmHg 77%
    20:00 +21°C° 0 mm 2 m/S 761 mmHg 81%
    21:00 +19°C° 0 mm 2 m/S 761 mmHg 86%
    22:00 +18°C° 0 mm 2 m/S 761 mmHg 90%
    23:00 +19°C° 0 mm 1 m/S 762 mmHg 91%

    Morgen, 20 Juni, Mittwoch

    Zeit Temperatur Niederschläge Wind Luftdruck Luftfeuchtigkeit
    00:00 +18°C° 0 mm 1 m/S 762 mmHg 93%
    01:00 +18°C° 0 mm 1 m/S 762 mmHg 94%
    02:00 +16°C° 0 mm 1 m/S 762 mmHg 94%
    03:00 +15°C° 0 mm 0 m/S 762 mmHg 95%
    04:00 +14°C° 0 mm 0 m/S 762 mmHg 95%
    05:00 +16°C° 0 mm 0 m/S 762 mmHg 90%
    06:00 +19°C° 0 mm 1 m/S 762 mmHg 86%
    07:00 +21°C° 0 mm 1 m/S 761 mmHg 81%
    08:00 +21°C° 0 mm 2 m/S 761 mmHg 76%
    09:00 +24°C° 0 mm 2 m/S 761 mmHg 70%
    10:00 +25°C° 0 mm 3 m/S 761 mmHg 64%
    11:00 +26°C° 0 mm 3 m/S 760 mmHg 62%
    12:00 +27°C° 0 mm 3 m/S 760 mmHg 61%
    13:00 +27°C° 0 mm 2 m/S 760 mmHg 59%
    14:00 +27°C° 0 mm 2 m/S 759 mmHg 59%
    15:00 +28°C° 0 mm 2 m/S 759 mmHg 59%
    16:00 +28°C° 0 mm 2 m/S 758 mmHg 59%
    17:00 +27°C° 0 mm 2 m/S 758 mmHg 63%
    18:00 +27°C° 0 mm 2 m/S 758 mmHg 67%
    19:00 +26°C° 0 mm 1 m/S 757 mmHg 71%
    20:00 +24°C° 0 mm 2 m/S 757 mmHg 76%
    21:00 +23°C° 0 mm 2 m/S 757 mmHg 81%
    22:00 +20°C° 0 mm 2 m/S 757 mmHg 86%
    23:00 +20°C° 0 mm 2 m/S 757 mmHg 88%

    übermorgen, 21 Juni, Donnerstag

    Zeit Temperatur Niederschläge Wind Luftdruck Luftfeuchtigkeit
    00:00 +19°C° 0 mm 2 m/S 757 mmHg 89%
    01:00 +19°C° 0 mm 2 m/S 757 mmHg 91%
    02:00 +18°C° 0 mm 2 m/S 756 mmHg 91%
    03:00 +18°C° 0 mm 2 m/S 756 mmHg 92%
    04:00 +18°C° 0 mm 2 m/S 756 mmHg 93%
    05:00 +19°C° 0 mm 2 m/S 755 mmHg 88%
    06:00 +20°C° 0 mm 2 m/S 755 mmHg 83%
    07:00 +23°C° 0 mm 2 m/S 754 mmHg 79%
    08:00 +23°C° 0,2 mm 4 m/S 754 mmHg 73%
    09:00 +25°C° 0,2 mm 5 m/S 753 mmHg 68%
    10:00 +26°C° 0,2 mm 6 m/S 752 mmHg 62%
    11:00 +24°C° 0,4 mm 7 m/S 752 mmHg 65%
    12:00 +23°C° 0,4 mm 8 m/S 752 mmHg 67%
    13:00 +22°C° 0,4 mm 9 m/S 752 mmHg 69%
    14:00 +21°C° 0,2 mm 9 m/S 752 mmHg 70%
    15:00 +18°C° 0,2 mm 9 m/S 753 mmHg 71%
    16:00 +16°C° 0,2 mm 9 m/S 753 mmHg 72%
    17:00 +16°C° 0 mm 8 m/S 754 mmHg 67%
    18:00 +15°C° 0 mm 7 m/S 754 mmHg 62%
    19:00 +15°C° 0 mm 7 m/S 755 mmHg 57%
    20:00 +14°C° 0 mm 6 m/S 756 mmHg 61%
    21:00 +12°C° 0 mm 5 m/S 756 mmHg 64%
    22:00 +10°C° 0 mm 5 m/S 757 mmHg 67%
    23:00 +10°C° 0 mm 5 m/S 757 mmHg 69%

    22 Juni, Freitag

    Zeit Temperatur Niederschläge Wind Luftdruck Luftfeuchtigkeit
    00:00 +9°C° 0 mm 5 m/S 757 mmHg 71%
    01:00 +9°C° 0 mm 5 m/S 757 mmHg 73%
    02:00 +8°C° 0 mm 5 m/S 757 mmHg 74%
    03:00 +8°C° 0 mm 6 m/S 757 mmHg 75%
    04:00 +8°C° 0 mm 6 m/S 757 mmHg 76%
    05:00 +9°C° 0 mm 6 m/S 757 mmHg 74%
    06:00 +10°C° 0 mm 7 m/S 757 mmHg 72%
    07:00 +11°C° 0 mm 7 m/S 757 mmHg 70%
    08:00 +11°C° 0,1 mm 7 m/S 757 mmHg 70%
    09:00 +12°C° 0,1 mm 7 m/S 757 mmHg 69%
    10:00 +14°C° 0,1 mm 7 m/S 757 mmHg 68%
    11:00 +15°C° 0,2 mm 7 m/S 757 mmHg 64%
    12:00 +16°C° 0,2 mm 7 m/S 757 mmHg 60%
    13:00 +18°C° 0,2 mm 7 m/S 757 mmHg 56%
    14:00 +18°C° 0,3 mm 7 m/S 757 mmHg 55%
    15:00 +18°C° 0,3 mm 7 m/S 757 mmHg 55%
    16:00 +18°C° 0,3 mm 7 m/S 757 mmHg 55%
    17:00 +17°C° 0,1 mm 6 m/S 757 mmHg 58%
    18:00 +17°C° 0,1 mm 6 m/S 757 mmHg 61%
    19:00 +16°C° 0,1 mm 5 m/S 757 mmHg 65%
    20:00 +15°C° 0 mm 5 m/S 758 mmHg 69%
    21:00 +13°C° 0 mm 5 m/S 758 mmHg 73%
    22:00 +12°C° 0 mm 5 m/S 758 mmHg 77%
    23:00 +12°C° 0 mm 5 m/S 759 mmHg 79%

    23 Juni, Samstag

    Zeit Temperatur Niederschläge Wind Luftdruck Luftfeuchtigkeit
    00:00 +10°C° 0 mm 5 m/S 759 mmHg 80%
    01:00 +10°C° 0 mm 5 m/S 759 mmHg 81%
    02:00 +10°C° 0 mm 5 m/S 759 mmHg 81%
    03:00 +10°C° 0 mm 5 m/S 759 mmHg 81%
    04:00 +9°C° 0 mm 5 m/S 759 mmHg 80%
    05:00 +10°C° 0 mm 6 m/S 759 mmHg 77%
    06:00 +11°C° 0 mm 6 m/S 759 mmHg 73%
    07:00 +11°C° 0 mm 6 m/S 759 mmHg 70%
    08:00 +13°C° 0 mm 6 m/S 759 mmHg 69%
    09:00 +13°C° 0 mm 6 m/S 759 mmHg 69%
    10:00 +14°C° 0 mm 5 m/S 760 mmHg 68%
    11:00 +14°C° 0,1 mm 6 m/S 760 mmHg 71%
    12:00 +14°C° 0,1 mm 6 m/S 760 mmHg 74%
    13:00 +14°C° 0,1 mm 6 m/S 760 mmHg 77%
    14:00 +14°C° 0,1 mm 5 m/S 759 mmHg 76%
    15:00 +15°C° 0,1 mm 5 m/S 759 mmHg 75%
    16:00 +15°C° 0,1 mm 5 m/S 759 mmHg 74%
    17:00 +15°C° 0,1 mm 5 m/S 759 mmHg 74%
    18:00 +15°C° 0,1 mm 4 m/S 759 mmHg 75%
    19:00 +14°C° 0,1 mm 4 m/S 759 mmHg 75%
    20:00 +13°C° 0 mm 4 m/S 760 mmHg 78%
    21:00 +12°C° 0 mm 4 m/S 760 mmHg 81%
    22:00 +11°C° 0 mm 3 m/S 760 mmHg 84%
    23:00 +10°C° 0 mm 3 m/S 760 mmHg 86%

    24 Juni, Sonntag

    Zeit Temperatur Niederschläge Wind Luftdruck Luftfeuchtigkeit
    00:00 +10°C° 0 mm 3 m/S 760 mmHg 88%
    01:00 +9°C° 0 mm 3 m/S 760 mmHg 91%
    02:00 +10°C° 0 mm 3 m/S 760 mmHg 90%
    03:00 +10°C° 0 mm 4 m/S 760 mmHg 89%
    04:00 +10°C° 0 mm 4 m/S 760 mmHg 88%
    05:00 +10°C° 0,1 mm 4 m/S 760 mmHg 88%
    06:00 +11°C° 0,1 mm 4 m/S 760 mmHg 88%
    07:00 +11°C° 0,1 mm 4 m/S 760 mmHg 87%
    08:00 +12°C° 0 mm 4 m/S 760 mmHg 86%
    09:00 +12°C° 0 mm 4 m/S 760 mmHg 84%
    10:00 +13°C° 0 mm 4 m/S 760 mmHg 83%
    11:00 +14°C° 0,1 mm 4 m/S 760 mmHg 79%
    12:00 +15°C° 0,1 mm 4 m/S 760 mmHg 75%
    13:00 +17°C° 0,1 mm 4 m/S 760 mmHg 71%
    14:00 +17°C° 0,1 mm 4 m/S 760 mmHg 71%
    15:00 +17°C° 0,1 mm 4 m/S 760 mmHg 72%
    16:00 +17°C° 0,1 mm 4 m/S 760 mmHg 72%
    17:00 +17°C° 0 mm 4 m/S 760 mmHg 74%
    18:00 +17°C° 0 mm 3 m/S 760 mmHg 76%
    19:00 +16°C° 0 mm 3 m/S 760 mmHg 79%
    20:00 +14°C° 0 mm 3 m/S 760 mmHg 82%
    21:00 +14°C° 0 mm 3 m/S 761 mmHg 85%
    22:00 +14°C° 0 mm 2 m/S 761 mmHg 88%
    23:00 +14°C° 0,1 mm 2 m/S 761 mmHg 89%
    Mehr zeigen